Location: Newark
(56.0692°N, 115.8617°E)
Time: 12:51:54
(UTC+00:00)

deb Explorer IX - Pass Details

Date: 26 May 2020
Orbit: 543 x 1102 km, 38.8° (Epoch: 06 July)

Event Time Altitude Azimuth Distance (km) Brightness Sun altitude
Rises 14:15:55 0° 225° (SW) 3,115 ? -8.7°
Reaches altitude 10° 14:19:33 10° 198° (SSW) 2,326 ? -9.0°
Maximum altitude 14:21:59 13° 171° (S) 2,201 ? -9.1°
Enters shadow 14:23:42 12° 153° (SSE) 2,357 ? -9.2°
